Time,TemperatureF,DewpointF,PressureIn,WindDirection,WindDirectionDegrees,WindSpeedMPH,WindSpeedGustMPH,Humidity,HourlyPrecipIn,Conditions,Clouds,dailyrainin,SoftwareType,DateUTC
2013-01-17 00:00:00,41.8,40.4,29.72,WNW,293,0.0,1.3,95,0.00,,,0.38,WUHU216HW,2013-01-17 05:00:00,
2013-01-17 00:01:00,41.8,40.4,29.72,WNW,293,0.0,1.3,95,0.00,,,0.38,WUHU216HW,2013-01-17 05:01:00,
2013-01-17 00:03:00,41.8,40.4,29.72,WNW,293,0.4,1.3,95,0.00,,,0.00,WUHU216HW,2013-01-17 05:03:00,
2013-01-17 00:08:00,41.8,40.4,29.72,WNW,293,0.0,0.4,95,0.00,,,0.00,WUHU216HW,2013-01-17 05:08:00,
2013-01-17 00:13:00,41.8,40.4,29.71,WNW,293,0.0,0.4,95,0.00,,,0.00,WUHU216HW,2013-01-17 05:13:00,
2013-01-17 00:18:00,41.8,40.4,29.72,NE,45,0.0,0.0,95,0.00,,,0.00,WUHU216HW,2013-01-17 05:18:00,
2013-01-17 00:23:00,41.8,40.4,29.72,SE,135,0.2,0.4,95,0.00,,,0.00,WUHU216HW,2013-01-17 05:23:00,
2013-01-17 00:28:00,41.8,40.4,29.71,South,180,0.0,0.4,95,0.00,,,0.00,WUHU216HW,2013-01-17 05:28:00,
2013-01-17 00:33:00,41.8,40.4,29.73,South,180,0.0,0.2,95,0.00,,,0.00,WUHU216HW,2013-01-17 05:33:00,
2013-01-17 00:38:00,41.8,40.4,29.72,South,180,0.0,0.0,95,0.00,,,0.00,WUHU216HW,2013-01-17 05:38:00,
2013-01-17 00:43:00,41.8,40.4,29.72,South,180,0.4,0.4,95,0.00,,,0.00,WUHU216HW,2013-01-17 05:43:00,
2013-01-17 00:48:00,41.8,40.4,29.73,South,180,0.4,0.4,95,0.00,,,0.00,WUHU216HW,2013-01-17 05:48:00,
2013-01-17 00:53:00,41.6,40.2,29.73,SW,225,0.0,0.4,95,0.00,,,0.00,WUHU216HW,2013-01-17 05:53:00,
2013-01-17 00:58:00,41.8,40.4,29.73,North,0,0.4,0.4,95,0.00,,,0.00,WUHU216HW,2013-01-17 05:58:00,
2013-01-17 01:03:00,41.8,40.4,29.73,WSW,248,0.7,0.7,95,0.00,,,0.00,WUHU216HW,2013-01-17 06:03:00,
2013-01-17 01:08:00,41.8,40.4,29.72,SE,135,0.0,0.7,95,0.00,,,0.00,WUHU216HW,2013-01-17 06:08:00,
2013-01-17 01:13:00,41.8,40.4,29.73,West,270,0.4,0.7,95,0.00,,,0.00,WUHU216HW,2013-01-17 06:13:00,
2013-01-17 01:18:00,41.8,40.4,29.72,West,270,0.0,0.4,95,0.00,,,0.00,WUHU216HW,2013-01-17 06:18:00,
2013-01-17 01:23:00,41.8,40.4,29.72,NW,315,0.2,0.4,95,0.00,,,0.00,WUHU216HW,2013-01-17 06:23:00,
2013-01-17 01:28:00,41.8,40.4,29.73,WNW,293,0.0,0.4,95,0.00,,,0.00,WUHU216HW,2013-01-17 06:28:00,
2013-01-17 01:33:00,41.8,40.4,29.74,WSW,248,0.0,0.9,95,0.00,,,0.00,WUHU216HW,2013-01-17 06:33:00,
2013-01-17 01:38:00,41.8,40.4,29.74,SSE,158,0.4,0.9,95,0.00,,,0.00,WUHU216HW,2013-01-17 06:38:00,
2013-01-17 01:43:00,41.8,40.4,29.74,SSE,158,0.0,0.7,95,0.01,,,0.01,WUHU216HW,2013-01-17 06:43:00,
2013-01-17 01:48:00,41.8,40.4,29.75,SSE,158,1.3,1.3,95,0.01,,,0.01,WUHU216HW,2013-01-17 06:48:00,
2013-01-17 01:53:00,41.8,40.4,29.75,WNW,293,0.4,2.5,95,0.01,,,0.01,WUHU216HW,2013-01-17 06:53:00,
2013-01-17 01:58:00,41.8,40.4,29.75,SSW,203,1.1,2.5,95,0.01,,,0.01,WUHU216HW,2013-01-17 06:58:00,
2013-01-17 02:03:00,41.8,40.4,29.75,South,180,0.0,1.3,95,0.01,,,0.01,WUHU216HW,2013-01-17 07:03:00,
2013-01-17 02:08:00,41.8,40.4,29.75,SSE,158,0.7,1.3,95,0.01,,,0.01,WUHU216HW,2013-01-17 07:08:00,
2013-01-17 02:13:00,41.8,40.4,29.74,SW,225,0.0,1.3,95,0.02,,,0.02,WUHU216HW,2013-01-17 07:13:00,
2013-01-17 02:18:00,41.8,40.4,29.75,WSW,248,0.0,0.9,95,0.02,,,0.02,WUHU216HW,2013-01-17 07:18:00,
2013-01-17 02:23:00,41.8,40.4,29.75,SW,225,0.9,1.1,95,0.02,,,0.02,WUHU216HW,2013-01-17 07:23:00,
2013-01-17 02:28:00,41.8,40.4,29.75,South,180,0.4,1.6,95,0.02,,,0.02,WUHU216HW,2013-01-17 07:28:00,
2013-01-17 02:33:00,41.8,40.4,29.75,South,180,1.3,1.6,95,0.02,,,0.02,WUHU216HW,2013-01-17 07:33:00,
2013-01-17 02:38:00,41.8,40.4,29.76,SW,225,0.2,1.3,95,0.02,,,0.02,WUHU216HW,2013-01-17 07:38:00,
2013-01-17 02:43:00,41.9,40.6,29.75,WSW,248,0.4,1.3,95,0.01,,,0.02,WUHU216HW,2013-01-17 07:43:00,
2013-01-17 02:48:00,41.9,40.6,29.75,SW,225,0.4,0.9,95,0.01,,,0.02,WUHU216HW,2013-01-17 07:48:00,
2013-01-17 02:53:00,41.9,40.6,29.75,SW,225,0.0,1.3,95,0.01,,,0.02,WUHU216HW,2013-01-17 07:53:00,
2013-01-17 02:58:00,41.9,40.6,29.74,West,270,0.2,1.3,95,0.01,,,0.02,WUHU216HW,2013-01-17 07:58:00,
2013-01-17 03:03:00,41.9,40.6,29.74,SSW,203,0.4,0.9,95,0.01,,,0.02,WUHU216HW,2013-01-17 08:03:00,
2013-01-17 03:08:00,41.9,40.6,29.75,SSW,203,0.0,0.9,95,0.01,,,0.02,WUHU216HW,2013-01-17 08:08:00,
2013-01-17 03:13:00,41.9,40.6,29.75,SE,135,0.4,0.4,95,0.00,,,0.02,WUHU216HW,2013-01-17 08:13:00,
2013-01-17 03:18:00,41.9,40.6,29.74,SW,225,0.4,0.9,95,0.00,,,0.02,WUHU216HW,2013-01-17 08:18:00,
2013-01-17 03:24:00,41.9,40.6,29.73,South,180,0.0,0.9,95,0.00,,,0.02,WUHU216HW,2013-01-17 08:24:00,
2013-01-17 03:29:00,41.9,40.6,29.73,South,180,0.7,1.1,95,0.00,,,0.02,WUHU216HW,2013-01-17 08:29:00,
2013-01-17 03:34:00,41.9,40.6,29.73,West,270,0.4,1.1,95,0.00,,,0.02,WUHU216HW,2013-01-17 08:34:00,
2013-01-17 03:39:00,41.9,40.6,29.72,North,0,0.4,0.9,95,0.00,,,0.02,WUHU216HW,2013-01-17 08:39:00,
2013-01-17 03:44:00,41.9,40.6,29.72,WSW,248,1.1,1.1,95,0.00,,,0.02,WUHU216HW,2013-01-17 08:44:00,
2013-01-17 03:49:00,41.9,40.6,29.73,SSW,203,0.4,1.3,95,0.00,,,0.02,WUHU216HW,2013-01-17 08:49:00,
2013-01-17 03:54:00,41.9,40.6,29.73,WNW,293,0.0,1.3,95,0.00,,,0.02,WUHU216HW,2013-01-17 08:54:00,
2013-01-17 03:59:00,41.9,40.6,29.74,WSW,248,0.0,0.7,95,0.00,,,0.02,WUHU216HW,2013-01-17 08:59:00,
2013-01-17 04:04:00,41.9,40.6,29.74,West,270,0.0,0.7,95,0.00,,,0.02,WUHU216HW,2013-01-17 09:04:00,
2013-01-17 04:09:00,41.9,40.6,29.74,WSW,248,0.0,0.4,95,0.00,,,0.02,WUHU216HW,2013-01-17 09:09:00,
2013-01-17 04:14:00,41.9,40.6,29.74,North,0,0.0,0.4,95,0.00,,,0.02,WUHU216HW,2013-01-17 09:14:00,
2013-01-17 04:19:00,41.9,40.6,29.74,NW,315,0.2,0.4,95,0.00,,,0.02,WUHU216HW,2013-01-17 09:19:00,
2013-01-17 04:24:00,41.9,40.6,29.74,NW,315,0.0,0.4,95,0.00,,,0.02,WUHU216HW,2013-01-17 09:24:00,
2013-01-17 04:29:00,41.9,40.6,29.75,South,180,0.2,0.9,95,0.00,,,0.02,WUHU216HW,2013-01-17 09:29:00,
2013-01-17 04:34:00,41.9,40.6,29.74,SW,225,0.0,0.9,95,0.00,,,0.02,WUHU216HW,2013-01-17 09:34:00,
2013-01-17 04:39:00,41.9,40.6,29.74,WNW,293,0.4,0.4,95,0.00,,,0.02,WUHU216HW,2013-01-17 09:39:00,
2013-01-17 04:44:00,41.9,40.6,29.73,WNW,293,0.0,0.4,95,0.00,,,0.02,WUHU216HW,2013-01-17 09:44:00,
2013-01-17 04:49:00,41.9,40.6,29.74,WNW,293,0.0,0.4,95,0.00,,,0.02,WUHU216HW,2013-01-17 09:49:00,
2013-01-17 04:54:00,41.9,40.6,29.74,WNW,293,0.0,0.4,95,0.00,,,0.02,WUHU216HW,2013-01-17 09:54:00,
2013-01-17 04:59:00,41.9,40.6,29.74,NW,315,0.0,0.4,95,0.00,,,0.02,WUHU216HW,2013-01-17 09:59:00,
2013-01-17 05:04:00,41.9,40.6,29.75,SSW,203,0.4,0.4,95,0.00,,,0.02,WUHU216HW,2013-01-17 10:04:00,
2013-01-17 05:09:00,41.9,40.6,29.75,SSE,158,0.4,1.1,95,0.00,,,0.02,WUHU216HW,2013-01-17 10:09:00,
2013-01-17 05:14:00,42.1,40.8,29.75,SSW,203,0.4,1.1,95,0.00,,,0.02,WUHU216HW,2013-01-17 10:14:00,
2013-01-17 05:19:00,41.9,40.6,29.77,SW,225,0.2,0.7,95,0.00,,,0.02,WUHU216HW,2013-01-17 10:19:00,
2013-01-17 05:24:00,42.1,40.8,29.76,NW,315,0.0,0.7,95,0.00,,,0.02,WUHU216HW,2013-01-17 10:24:00,
2013-01-17 05:29:00,42.1,40.8,29.76,NW,315,0.0,0.2,95,0.00,,,0.02,WUHU216HW,2013-01-17 10:29:00,
2013-01-17 05:34:00,41.9,40.6,29.76,WNW,293,0.0,0.4,95,0.00,,,0.02,WUHU216HW,2013-01-17 10:34:00,
2013-01-17 05:39:00,41.9,40.6,29.76,WNW,293,0.0,0.4,95,0.00,,,0.02,WUHU216HW,2013-01-17 10:39:00,
2013-01-17 05:45:00,41.9,40.6,29.76,South,180,0.7,0.7,95,0.00,,,0.02,WUHU216HW,2013-01-17 10:45:00,
2013-01-17 05:50:00,41.9,40.6,29.76,South,180,0.0,0.7,95,0.00,,,0.02,WUHU216HW,2013-01-17 10:50:00,
2013-01-17 05:55:00,41.9,40.6,29.76,South,180,0.0,0.4,95,0.00,,,0.02,WUHU216HW,2013-01-17 10:55:00,
2013-01-17 06:00:00,41.9,40.6,29.76,SE,135,0.0,0.0,95,0.00,,,0.02,WUHU216HW,2013-01-17 11:00:00,
2013-01-17 06:05:00,41.9,40.6,29.75,ESE,113,0.0,0.4,95,0.00,,,0.02,WUHU216HW,2013-01-17 11:05:00,
2013-01-17 06:10:00,41.8,40.4,29.76,SSE,158,0.0,2.0,95,0.00,,,0.02,WUHU216HW,2013-01-17 11:10:00,
2013-01-17 06:15:00,41.8,40.4,29.77,WSW,248,0.2,2.0,95,0.00,,,0.02,WUHU216HW,2013-01-17 11:15:00,
2013-01-17 06:20:00,41.8,40.4,29.77,SSW,203,0.0,0.7,95,0.00,,,0.02,WUHU216HW,2013-01-17 11:20:00,
2013-01-17 06:25:00,41.8,40.4,29.77,SW,225,0.0,0.4,95,0.00,,,0.02,WUHU216HW,2013-01-17 11:25:00,
2013-01-17 06:30:00,41.8,40.4,29.77,South,180,0.4,0.4,95,0.00,,,0.02,WUHU216HW,2013-01-17 11:30:00,
2013-01-17 06:35:00,41.8,40.4,29.78,SW,225,0.0,0.7,95,0.00,,,0.02,WUHU216HW,2013-01-17 11:35:00,
2013-01-17 06:40:00,41.8,40.4,29.78,West,270,0.0,0.7,95,0.00,,,0.02,WUHU216HW,2013-01-17 11:40:00,
2013-01-17 06:45:00,41.8,40.4,29.78,West,270,0.0,0.2,95,0.00,,,0.02,WUHU216HW,2013-01-17 11:45:00,
2013-01-17 06:50:00,41.8,40.4,29.79,WNW,293,0.0,0.0,95,0.00,,,0.02,WUHU216HW,2013-01-17 11:50:00,
2013-01-17 06:55:00,41.6,40.2,29.79,WNW,293,0.2,0.7,95,0.00,,,0.02,WUHU216HW,2013-01-17 11:55:00,
2013-01-17 07:00:00,41.6,40.2,29.79,West,270,0.9,0.9,95,0.00,,,0.02,WUHU216HW,2013-01-17 12:00:00,
2013-01-17 07:05:00,41.4,40.1,29.80,WSW,248,0.0,0.9,95,0.00,,,0.02,WUHU216HW,2013-01-17 12:05:00,
2013-01-17 07:10:00,41.4,40.1,29.81,SW,225,0.0,0.9,95,0.00,,,0.02,WUHU216HW,2013-01-17 12:10:00,
2013-01-17 07:15:00,41.4,40.1,29.80,NNW,338,0.0,0.0,95,0.00,,,0.02,WUHU216HW,2013-01-17 12:15:00,
2013-01-17 07:20:00,41.4,40.1,29.79,NNW,338,0.0,0.0,95,0.00,,,0.02,WUHU216HW,2013-01-17 12:20:00,
2013-01-17 07:25:00,41.2,39.9,29.80,WNW,293,0.2,0.4,95,0.00,,,0.02,WUHU216HW,2013-01-17 12:25:00,
2013-01-17 07:30:00,41.0,39.7,29.80,WSW,248,0.4,0.9,95,0.00,,,0.02,WUHU216HW,2013-01-17 12:30:00,
2013-01-17 07:35:00,40.9,39.5,29.79,West,270,0.0,1.1,95,0.00,,,0.02,WUHU216HW,2013-01-17 12:35:00,
2013-01-17 07:40:00,40.7,39.3,29.79,NW,315,1.3,1.3,95,0.00,,,0.02,WUHU216HW,2013-01-17 12:40:00,
2013-01-17 07:45:00,40.7,39.3,29.79,SSW,203,0.4,1.3,95,0.00,,,0.02,WUHU216HW,2013-01-17 12:45:00,
2013-01-17 07:50:00,40.5,39.2,29.80,WSW,248,0.0,1.3,95,0.00,,,0.02,WUHU216HW,2013-01-17 12:50:00,
2013-01-17 07:55:00,40.3,38.7,29.81,SW,225,1.6,2.0,94,0.01,,,0.03,WUHU216HW,2013-01-17 12:55:00,
2013-01-17 08:00:00,40.3,39.0,29.81,WNW,293,1.3,2.0,95,0.01,,,0.03,WUHU216HW,2013-01-17 13:00:00,
2013-01-17 08:05:00,40.3,39.0,29.82,SSE,158,1.1,1.8,95,0.01,,,0.03,WUHU216HW,2013-01-17 13:05:00,
2013-01-17 08:10:00,40.5,39.2,29.82,NW,315,2.2,2.7,95,0.01,,,0.03,WUHU216HW,2013-01-17 13:10:00,
2013-01-17 08:15:00,40.5,39.2,29.82,WNW,293,0.7,2.7,95,0.01,,,0.03,WUHU216HW,2013-01-17 13:15:00,
2013-01-17 08:20:00,40.5,39.2,29.82,WNW,293,1.1,2.2,95,0.01,,,0.03,WUHU216HW,2013-01-17 13:20:00,
2013-01-17 08:25:00,40.5,39.2,29.83,WSW,248,0.7,1.8,95,0.01,,,0.03,WUHU216HW,2013-01-17 13:25:00,
2013-01-17 08:30:00,40.7,39.1,29.84,NNW,338,0.0,1.1,94,0.01,,,0.03,WUHU216HW,2013-01-17 13:30:00,
2013-01-17 08:35:00,40.9,39.2,29.83,West,270,0.7,0.7,94,0.01,,,0.03,WUHU216HW,2013-01-17 13:35:00,
2013-01-17 08:40:00,40.7,39.1,29.84,NW,315,0.9,1.6,94,0.01,,,0.03,WUHU216HW,2013-01-17 13:40:00,
2013-01-17 08:45:00,40.7,38.8,29.84,NW,315,1.3,1.6,93,0.01,,,0.03,WUHU216HW,2013-01-17 13:45:00,
2013-01-17 08:50:00,40.9,39.0,29.85,WNW,293,0.4,1.3,93,0.01,,,0.03,WUHU216HW,2013-01-17 13:50:00,
2013-01-17 08:55:00,41.0,39.2,29.85,NW,315,0.2,1.3,93,0.00,,,0.03,WUHU216HW,2013-01-17 13:55:00,
2013-01-17 09:00:00,41.2,39.3,29.85,North,0,0.0,1.1,93,0.00,,,0.03,WUHU216HW,2013-01-17 14:00:00,
2013-01-17 09:05:00,41.4,39.2,29.84,NNW,338,0.4,1.1,92,0.00,,,0.03,WUHU216HW,2013-01-17 14:05:00,
2013-01-17 09:10:00,41.4,39.2,29.84,NW,315,0.0,0.4,92,0.00,,,0.03,WUHU216HW,2013-01-17 14:10:00,
2013-01-17 09:15:00,41.4,39.2,29.85,NNE,23,0.2,1.1,92,0.00,,,0.03,WUHU216HW,2013-01-17 14:15:00,
2013-01-17 09:20:00,41.4,39.0,29.84,North,0,0.4,1.1,91,0.00,,,0.03,WUHU216HW,2013-01-17 14:20:00,
2013-01-17 09:25:00,41.8,39.1,29.84,SW,225,0.4,0.7,90,0.00,,,0.03,WUHU216HW,2013-01-17 14:25:00,
2013-01-17 09:30:00,41.9,39.2,29.85,North,0,0.4,2.5,90,0.00,,,0.03,WUHU216HW,2013-01-17 14:30:00,
2013-01-17 09:35:00,42.1,39.2,29.86,WNW,293,1.3,2.5,89,0.00,,,0.03,WUHU216HW,2013-01-17 14:35:00,
2013-01-17 09:40:00,42.1,39.2,29.86,NNW,338,1.1,1.3,89,0.00,,,0.03,WUHU216HW,2013-01-17 14:40:00,
2013-01-17 09:45:00,42.3,38.7,29.86,WNW,293,1.8,2.9,87,0.00,,,0.03,WUHU216HW,2013-01-17 14:45:00,
2013-01-17 09:50:00,42.5,38.5,29.86,WSW,248,0.7,2.9,86,0.00,,,0.03,WUHU216HW,2013-01-17 14:50:00,
2013-01-17 09:55:00,42.7,38.7,29.86,South,180,0.2,1.8,86,0.00,,,0.03,WUHU216HW,2013-01-17 14:55:00,
2013-01-17 10:00:00,42.8,38.9,29.86,North,0,0.9,0.9,86,0.00,,,0.03,WUHU216HW,2013-01-17 15:00:00,
2013-01-17 10:05:00,42.8,38.9,29.86,NW,315,1.1,3.6,86,0.00,,,0.03,WUHU216HW,2013-01-17 15:05:00,
2013-01-17 10:10:00,43.2,39.0,29.85,NNW,338,0.4,3.6,85,0.00,,,0.03,WUHU216HW,2013-01-17 15:10:00,
2013-01-17 10:15:00,43.6,39.3,29.86,West,270,2.7,3.6,85,0.00,,,0.03,WUHU216HW,2013-01-17 15:15:00,
2013-01-17 10:20:00,43.9,39.1,29.85,WSW,248,0.4,3.6,83,0.00,,,0.03,WUHU216HW,2013-01-17 15:20:00,
2013-01-17 10:25:00,44.1,39.0,29.85,NW,315,0.4,2.7,82,0.00,,,0.03,WUHU216HW,2013-01-17 15:25:00,
2013-01-17 10:30:00,44.5,39.3,29.85,WSW,248,1.1,2.5,82,0.00,,,0.03,WUHU216HW,2013-01-17 15:30:00,
2013-01-17 10:35:00,44.6,39.2,29.85,WSW,248,0.4,2.5,81,0.00,,,0.03,WUHU216HW,2013-01-17 15:35:00,
2013-01-17 10:40:00,45.0,39.2,29.85,WSW,248,3.6,4.0,80,0.00,,,0.03,WUHU216HW,2013-01-17 15:40:00,
2013-01-17 10:45:00,45.0,38.9,29.86,NE,45,0.7,4.0,79,0.00,,,0.03,WUHU216HW,2013-01-17 15:45:00,
2013-01-17 10:50:00,44.8,38.1,29.85,SSE,158,1.1,4.9,77,0.00,,,0.03,WUHU216HW,2013-01-17 15:50:00,
2013-01-17 10:55:00,44.8,38.1,29.86,North,0,1.1,4.9,77,0.00,,,0.03,WUHU216HW,2013-01-17 15:55:00,
2013-01-17 11:00:00,44.6,38.2,29.85,SW,225,2.2,2.9,78,0.00,,,0.03,WUHU216HW,2013-01-17 16:00:00,
2013-01-17 11:05:00,44.6,37.9,29.85,West,270,1.6,2.9,77,0.00,,,0.03,WUHU216HW,2013-01-17 16:05:00,
2013-01-17 11:10:00,44.5,37.4,29.85,WSW,248,1.1,2.5,76,0.00,,,0.03,WUHU216HW,2013-01-17 16:10:00,
2013-01-17 11:15:00,44.5,37.4,29.84,WSW,248,1.1,2.5,76,0.00,,,0.03,WUHU216HW,2013-01-17 16:15:00,
2013-01-17 11:20:00,44.3,36.8,29.85,SW,225,2.5,3.6,75,0.00,,,0.03,WUHU216HW,2013-01-17 16:20:00,
2013-01-17 11:25:00,44.3,36.5,29.85,North,0,0.7,3.6,74,0.00,,,0.03,WUHU216HW,2013-01-17 16:25:00,
2013-01-17 11:30:00,44.5,37.0,29.85,WSW,248,0.9,2.5,75,0.00,,,0.03,WUHU216HW,2013-01-17 16:30:00,
2013-01-17 11:35:00,44.6,37.2,29.86,WSW,248,2.0,2.2,75,0.00,,,0.03,WUHU216HW,2013-01-17 16:35:00,
2013-01-17 11:40:00,44.6,37.2,29.85,NNE,23,1.8,3.4,75,0.00,,,0.03,WUHU216HW,2013-01-17 16:40:00,
2013-01-17 11:45:00,44.8,37.4,29.84,WSW,248,1.8,3.4,75,0.00,,,0.03,WUHU216HW,2013-01-17 16:45:00,
2013-01-17 11:50:00,45.0,37.5,29.84,SW,225,2.0,2.0,75,0.00,,,0.03,WUHU216HW,2013-01-17 16:50:00,
2013-01-17 11:55:00,45.4,37.5,29.84,West,270,0.7,2.0,74,0.00,,,0.03,WUHU216HW,2013-01-17 16:55:00,
2013-01-17 12:00:00,45.4,37.5,29.83,North,0,0.4,2.0,74,0.00,,,0.03,WUHU216HW,2013-01-17 17:00:00,
2013-01-17 12:05:00,45.0,37.2,29.83,WSW,248,3.4,4.7,74,0.00,,,0.03,WUHU216HW,2013-01-17 17:05:00,
2013-01-17 12:10:00,45.0,37.2,29.83,NW,315,0.7,4.7,74,0.00,,,0.03,WUHU216HW,2013-01-17 17:10:00,
2013-01-17 12:15:00,44.8,37.0,29.83,NNE,23,0.4,3.4,74,0.00,,,0.03,WUHU216HW,2013-01-17 17:15:00,
2013-01-17 12:20:00,45.0,37.2,29.83,NW,315,1.8,1.8,74,0.00,,,0.03,WUHU216HW,2013-01-17 17:20:00,
2013-01-17 12:25:00,45.0,37.2,29.82,SSW,203,2.0,2.0,74,0.00,,,0.03,WUHU216HW,2013-01-17 17:25:00,
2013-01-17 12:30:00,45.5,38.1,29.82,West,270,1.3,2.7,75,0.00,,,0.03,WUHU216HW,2013-01-17 17:30:00,
2013-01-17 12:36:00,45.7,37.5,29.82,WNW,293,1.3,2.7,73,0.00,,,0.03,WUHU216HW,2013-01-17 17:36:00,
2013-01-17 12:41:00,45.7,37.5,29.82,North,0,0.4,1.3,73,0.00,,,0.03,WUHU216HW,2013-01-17 17:41:00,
2013-01-17 12:46:00,45.7,37.9,29.81,NW,315,1.8,3.6,74,0.00,,,0.03,WUHU216HW,2013-01-17 17:46:00,
2013-01-17 12:51:00,45.5,37.4,29.81,North,0,1.8,3.6,73,0.00,,,0.03,WUHU216HW,2013-01-17 17:51:00,
2013-01-17 12:56:00,45.4,36.9,29.81,North,0,0.9,4.0,72,0.00,,,0.03,WUHU216HW,2013-01-17 17:56:00,
2013-01-17 13:01:00,45.2,36.7,29.81,NW,315,3.1,4.0,72,0.00,,,0.03,WUHU216HW,2013-01-17 18:01:00,
2013-01-17 13:06:00,45.2,36.7,29.82,NW,315,1.1,3.6,72,0.00,,,0.03,WUHU216HW,2013-01-17 18:06:00,
2013-01-17 13:11:00,45.2,37.0,29.81,NW,315,2.2,3.6,73,0.00,,,0.03,WUHU216HW,2013-01-17 18:11:00,
2013-01-17 13:16:00,45.2,36.4,29.81,North,0,0.4,3.4,71,0.00,,,0.03,WUHU216HW,2013-01-17 18:16:00,
2013-01-17 13:21:00,45.4,36.9,29.81,NW,315,1.1,3.4,72,0.00,,,0.03,WUHU216HW,2013-01-17 18:21:00,
2013-01-17 13:26:00,45.4,36.6,29.80,NNW,338,1.8,2.2,71,0.00,,,0.03,WUHU216HW,2013-01-17 18:26:00,
2013-01-17 13:31:00,45.0,36.6,29.81,NNE,23,2.2,3.4,72,0.00,,,0.03,WUHU216HW,2013-01-17 18:31:00,
2013-01-17 13:36:00,45.0,36.6,29.81,North,0,1.3,3.4,72,0.00,,,0.03,WUHU216HW,2013-01-17 18:36:00,
2013-01-17 13:41:00,44.8,36.0,29.80,North,0,0.7,4.0,71,0.00,,,0.03,WUHU216HW,2013-01-17 18:41:00,
2013-01-17 13:46:00,44.6,36.2,29.80,NNW,338,2.5,4.0,72,0.00,,,0.03,WUHU216HW,2013-01-17 18:46:00,
2013-01-17 13:51:00,44.5,36.0,29.81,NW,315,0.4,2.5,72,0.00,,,0.03,WUHU216HW,2013-01-17 18:51:00,
2013-01-17 13:56:00,44.3,35.8,29.80,NW,315,0.7,2.5,72,0.00,,,0.03,WUHU216HW,2013-01-17 18:56:00,
2013-01-17 14:01:00,44.3,35.8,29.81,ENE,68,2.5,2.5,72,0.00,,,0.03,WUHU216HW,2013-01-17 19:01:00,
2013-01-17 14:06:00,44.1,35.6,29.82,NNE,23,0.9,2.5,72,0.00,,,0.03,WUHU216HW,2013-01-17 19:06:00,
2013-01-17 14:11:00,43.9,35.5,29.83,NNW,338,1.1,2.5,72,0.00,,,0.03,WUHU216HW,2013-01-17 19:11:00,
2013-01-17 14:16:00,43.9,35.5,29.83,NNW,338,0.0,2.5,72,0.00,,,0.03,WUHU216HW,2013-01-17 19:16:00,
2013-01-17 14:21:00,43.7,35.0,29.81,NE,45,0.4,3.1,71,0.00,,,0.03,WUHU216HW,2013-01-17 19:21:00,
2013-01-17 14:26:00,43.6,35.2,29.80,ENE,68,1.6,3.1,72,0.00,,,0.03,WUHU216HW,2013-01-17 19:26:00,
2013-01-17 14:31:00,43.6,35.2,29.81,NNE,23,0.0,1.8,72,0.00,,,0.03,WUHU216HW,2013-01-17 19:31:00,
2013-01-17 14:36:00,43.4,35.3,29.81,North,0,0.4,1.8,73,0.00,,,0.03,WUHU216HW,2013-01-17 19:36:00,
2013-01-17 14:41:00,43.2,35.2,29.81,WSW,248,0.7,0.7,73,0.00,,,0.03,WUHU216HW,2013-01-17 19:41:00,
2013-01-17 14:46:00,43.0,35.3,29.82,NNW,338,0.7,1.1,74,0.00,,,0.03,WUHU216HW,2013-01-17 19:46:00,
2013-01-17 14:51:00,43.0,35.3,29.81,WNW,293,0.4,1.1,74,0.00,,,0.03,WUHU216HW,2013-01-17 19:51:00,
2013-01-17 14:56:00,42.8,35.1,29.81,NNE,23,0.4,1.6,74,0.00,,,0.03,WUHU216HW,2013-01-17 19:56:00,
2013-01-17 15:01:00,42.7,34.9,29.82,North,0,1.1,1.6,74,0.00,,,0.03,WUHU216HW,2013-01-17 20:01:00,
2013-01-17 15:06:00,42.7,34.9,29.81,North,0,0.4,2.2,74,0.00,,,0.03,WUHU216HW,2013-01-17 20:06:00,
2013-01-17 15:11:00,42.5,34.7,29.82,North,0,0.4,2.2,74,0.00,,,0.03,WUHU216HW,2013-01-17 20:11:00,
2013-01-17 15:16:00,42.5,35.1,29.82,NW,315,2.7,3.4,75,0.00,,,0.03,WUHU216HW,2013-01-17 20:16:00,
2013-01-17 15:21:00,42.3,34.9,29.82,North,0,0.4,3.4,75,0.00,,,0.03,WUHU216HW,2013-01-17 20:21:00,
2013-01-17 15:26:00,42.1,34.7,29.83,NNE,23,1.1,2.7,75,0.00,,,0.03,WUHU216HW,2013-01-17 20:26:00,
2013-01-17 15:31:00,42.1,34.7,29.84,NNW,338,0.0,1.8,75,0.00,,,0.03,WUHU216HW,2013-01-17 20:31:00,
2013-01-17 15:36:00,42.1,35.1,29.82,ENE,68,0.2,1.3,76,0.00,,,0.03,WUHU216HW,2013-01-17 20:36:00,
2013-01-17 15:41:00,41.9,34.9,29.84,North,0,0.4,1.3,76,0.00,,,0.03,WUHU216HW,2013-01-17 20:41:00,
2013-01-17 15:46:00,41.8,34.8,29.84,ENE,68,1.1,1.1,76,0.00,,,0.03,WUHU216HW,2013-01-17 20:46:00,
2013-01-17 15:51:00,41.8,34.8,29.84,NW,315,0.0,1.1,76,0.00,,,0.03,WUHU216HW,2013-01-17 20:51:00,
2013-01-17 15:56:00,41.6,34.6,29.84,NNE,23,0.0,1.1,76,0.00,,,0.03,WUHU216HW,2013-01-17 20:56:00,
2013-01-17 16:01:00,41.6,34.8,29.85,NE,45,0.7,1.1,77,0.00,,,0.03,WUHU216HW,2013-01-17 21:01:00,
2013-01-17 16:06:00,41.6,34.8,29.85,NE,45,0.0,0.7,77,0.00,,,0.03,WUHU216HW,2013-01-17 21:06:00,
2013-01-17 16:11:00,41.4,34.7,29.84,East,90,0.4,1.3,77,0.00,,,0.03,WUHU216HW,2013-01-17 21:11:00,
2013-01-17 16:16:00,41.4,34.7,29.83,NE,45,0.2,1.3,77,0.00,,,0.03,WUHU216HW,2013-01-17 21:16:00,
2013-01-17 16:21:00,41.4,34.7,29.84,NE,45,0.0,0.7,77,0.00,,,0.03,WUHU216HW,2013-01-17 21:21:00,
2013-01-17 16:26:00,41.4,35.0,29.85,SSE,158,0.0,0.7,78,0.00,,,0.03,WUHU216HW,2013-01-17 21:26:00,
2013-01-17 16:31:00,41.4,35.0,29.85,SSE,158,0.0,0.4,78,0.00,,,0.03,WUHU216HW,2013-01-17 21:31:00,
2013-01-17 16:36:00,41.2,35.1,29.83,ENE,68,1.1,1.8,79,0.00,,,0.03,WUHU216HW,2013-01-17 21:36:00,
2013-01-17 16:41:00,41.0,34.9,29.83,SE,135,0.2,2.5,79,0.00,,,0.03,WUHU216HW,2013-01-17 21:41:00,
2013-01-17 16:46:00,41.0,34.9,29.84,NNW,338,0.4,2.5,79,0.00,,,0.03,WUHU216HW,2013-01-17 21:46:00,
2013-01-17 16:51:00,41.0,34.9,29.84,NNE,23,0.0,1.6,79,0.00,,,0.03,WUHU216HW,2013-01-17 21:51:00,
2013-01-17 16:57:00,40.9,34.8,29.84,NW,315,0.4,1.6,79,0.00,,,0.03,WUHU216HW,2013-01-17 21:57:00,
2013-01-17 17:02:00,40.7,34.7,29.84,NW,315,0.0,0.9,79,0.00,,,0.03,WUHU216HW,2013-01-17 22:02:00,
2013-01-17 17:07:00,40.7,34.7,29.85,North,0,0.2,0.9,79,0.00,,,0.03,WUHU216HW,2013-01-17 22:07:00,
2013-01-17 17:12:00,40.7,34.9,29.85,NW,315,0.0,0.9,80,0.00,,,0.03,WUHU216HW,2013-01-17 22:12:00,
2013-01-17 17:17:00,40.3,34.7,29.85,North,0,0.0,0.9,80,0.00,,,0.03,WUHU216HW,2013-01-17 22:17:00,
2013-01-17 17:22:00,40.3,34.7,29.84,NE,45,0.0,1.1,80,0.00,,,0.03,WUHU216HW,2013-01-17 22:22:00,
2013-01-17 17:27:00,40.1,34.5,29.84,NNW,338,0.2,1.8,80,0.00,,,0.03,WUHU216HW,2013-01-17 22:27:00,
2013-01-17 17:32:00,40.1,34.5,29.83,North,0,0.0,1.8,80,0.00,,,0.03,WUHU216HW,2013-01-17 22:32:00,
2013-01-17 17:37:00,40.1,34.1,29.83,NE,45,0.0,0.7,79,0.00,,,0.03,WUHU216HW,2013-01-17 22:37:00,
2013-01-17 17:42:00,40.0,33.9,29.83,NE,45,0.0,0.9,79,0.00,,,0.03,WUHU216HW,2013-01-17 22:42:00,
2013-01-17 17:47:00,40.0,34.3,29.83,ESE,113,0.0,0.9,80,0.00,,,0.03,WUHU216HW,2013-01-17 22:47:00,
2013-01-17 17:52:00,39.8,34.1,29.83,North,0,0.2,0.7,80,0.00,,,0.03,WUHU216HW,2013-01-17 22:52:00,
2013-01-17 17:57:00,39.8,34.1,29.84,North,0,0.4,0.7,80,0.00,,,0.03,WUHU216HW,2013-01-17 22:57:00,
2013-01-17 18:02:00,39.8,34.1,29.84,North,0,0.0,0.7,80,0.00,,,0.03,WUHU216HW,2013-01-17 23:02:00,
2013-01-17 18:07:00,39.8,34.1,29.85,NNE,23,0.2,0.7,80,0.00,,,0.03,WUHU216HW,2013-01-17 23:07:00,
2013-01-17 18:12:00,39.8,34.1,29.85,North,0,0.2,0.7,80,0.00,,,0.03,WUHU216HW,2013-01-17 23:12:00,
2013-01-17 18:17:00,39.8,34.1,29.86,North,0,0.0,0.4,80,0.00,,,0.03,WUHU216HW,2013-01-17 23:17:00,
2013-01-17 18:22:00,39.8,34.1,29.86,North,0,0.0,0.2,80,0.00,,,0.03,WUHU216HW,2013-01-17 23:22:00,
2013-01-17 18:27:00,39.8,34.1,29.86,WNW,293,0.9,0.9,80,0.00,,,0.03,WUHU216HW,2013-01-17 23:27:00,
2013-01-17 18:32:00,39.8,34.1,29.87,North,0,0.0,1.1,80,0.00,,,0.03,WUHU216HW,2013-01-17 23:32:00,
2013-01-17 18:37:00,40.0,34.3,29.87,NNW,338,0.0,1.1,80,0.00,,,0.03,WUHU216HW,2013-01-17 23:37:00,
2013-01-17 18:42:00,39.8,34.1,29.87,WNW,293,1.1,1.1,80,0.00,,,0.03,WUHU216HW,2013-01-17 23:42:00,
2013-01-17 18:47:00,40.0,33.9,29.86,NNE,23,0.7,1.1,79,0.00,,,0.03,WUHU216HW,2013-01-17 23:47:00,
2013-01-17 18:52:00,40.0,34.3,29.86,North,0,0.0,1.1,80,0.00,,,0.03,WUHU216HW,2013-01-17 23:52:00,
2013-01-17 18:57:00,39.8,33.9,29.85,North,0,0.0,0.7,79,0.00,,,0.03,WUHU216HW,2013-01-17 23:57:00,
2013-01-17 19:02:00,39.8,33.9,29.85,WNW,293,0.2,0.7,79,0.00,,,0.03,WUHU216HW,2013-01-18 00:02:00,
2013-01-17 19:07:00,39.6,34.0,29.85,NNW,338,0.0,0.7,80,0.00,,,0.03,WUHU216HW,2013-01-18 00:07:00,
2013-01-17 19:12:00,39.6,33.7,29.85,NNW,338,0.2,1.1,79,0.00,,,0.03,WUHU216HW,2013-01-18 00:12:00,
2013-01-17 19:17:00,39.6,34.0,29.83,NE,45,0.4,1.1,80,0.00,,,0.03,WUHU216HW,2013-01-18 00:17:00,
2013-01-17 19:22:00,39.6,34.0,29.81,East,90,0.0,0.9,80,0.00,,,0.03,WUHU216HW,2013-01-18 00:22:00,
2013-01-17 19:27:00,39.4,33.9,29.82,NW,315,0.9,0.9,80,0.00,,,0.03,WUHU216HW,2013-01-18 00:27:00,
2013-01-17 19:32:00,39.4,33.9,29.82,NW,315,0.4,1.1,80,0.00,,,0.03,WUHU216HW,2013-01-18 00:32:00,
2013-01-17 19:37:00,39.6,34.0,29.83,WNW,293,1.6,2.9,80,0.00,,,0.03,WUHU216HW,2013-01-18 00:37:00,
2013-01-17 19:42:00,39.8,34.1,29.83,WSW,248,1.8,3.8,80,0.00,,,0.03,WUHU216HW,2013-01-18 00:42:00,
2013-01-17 19:47:00,40.0,33.9,29.83,NW,315,2.9,3.8,79,0.00,,,0.03,WUHU216HW,2013-01-18 00:47:00,
2013-01-17 19:52:00,40.0,33.9,29.82,NW,315,1.1,3.6,79,0.00,,,0.03,WUHU216HW,2013-01-18 00:52:00,
2013-01-17 19:57:00,40.0,33.9,29.83,WNW,293,1.8,3.4,79,0.00,,,0.03,WUHU216HW,2013-01-18 00:57:00,
2013-01-17 20:02:00,40.0,33.9,29.82,WNW,293,1.1,3.4,79,0.00,,,0.03,WUHU216HW,2013-01-18 01:02:00,
2013-01-17 20:07:00,40.0,33.9,29.80,NNE,23,2.2,3.1,79,0.00,,,0.03,WUHU216HW,2013-01-18 01:07:00,
2013-01-17 20:12:00,39.8,33.9,29.80,NW,315,0.7,2.2,79,0.00,,,0.03,WUHU216HW,2013-01-18 01:12:00,
2013-01-17 20:17:00,39.8,33.9,29.81,NW,315,0.7,1.1,79,0.00,,,0.03,WUHU216HW,2013-01-18 01:17:00,
2013-01-17 20:22:00,39.8,33.9,29.82,NNE,23,0.0,1.1,79,0.00,,,0.03,WUHU216HW,2013-01-18 01:22:00,
2013-01-17 20:27:00,39.6,33.7,29.82,West,270,0.0,1.1,79,0.00,,,0.03,WUHU216HW,2013-01-18 01:27:00,
2013-01-17 20:32:00,39.6,33.7,29.81,NNW,338,0.4,1.1,79,0.00,,,0.03,WUHU216HW,2013-01-18 01:32:00,
2013-01-17 20:38:00,39.4,33.5,29.81,WNW,293,0.4,1.8,79,0.00,,,0.03,WUHU216HW,2013-01-18 01:38:00,
2013-01-17 20:43:00,39.4,33.5,29.81,NW,315,0.2,1.8,79,0.00,,,0.03,WUHU216HW,2013-01-18 01:43:00,
2013-01-17 20:48:00,39.4,33.5,29.81,NW,315,0.4,1.1,79,0.00,,,0.03,WUHU216HW,2013-01-18 01:48:00,
2013-01-17 20:53:00,39.4,33.5,29.81,West,270,0.2,1.6,79,0.00,,,0.03,WUHU216HW,2013-01-18 01:53:00,
2013-01-17 20:58:00,39.4,33.5,29.82,WSW,248,0.2,1.6,79,0.00,,,0.03,WUHU216HW,2013-01-18 01:58:00,
2013-01-17 21:03:00,39.2,33.3,29.82,West,270,0.2,1.1,79,0.00,,,0.03,WUHU216HW,2013-01-18 02:03:00,
2013-01-17 21:08:00,39.2,33.3,29.79,North,0,0.4,1.1,79,0.00,,,0.03,WUHU216HW,2013-01-18 02:08:00,
2013-01-17 21:13:00,39.2,33.3,29.80,NW,315,1.1,1.6,79,0.00,,,0.03,WUHU216HW,2013-01-18 02:13:00,
2013-01-17 21:18:00,39.4,33.5,29.80,NW,315,0.4,1.6,79,0.00,,,0.03,WUHU216HW,2013-01-18 02:18:00,
2013-01-17 21:23:00,39.4,33.5,29.80,SSE,158,0.7,1.8,79,0.00,,,0.03,WUHU216HW,2013-01-18 02:23:00,
2013-01-17 21:28:00,39.4,33.5,29.79,WNW,293,2.5,2.5,79,0.00,,,0.03,WUHU216HW,2013-01-18 02:28:00,
2013-01-17 21:33:00,39.4,33.1,29.79,WNW,293,0.9,2.5,78,0.00,,,0.03,WUHU216HW,2013-01-18 02:33:00,
2013-01-17 21:38:00,39.4,33.1,29.79,WNW,293,2.0,2.2,78,0.00,,,0.03,WUHU216HW,2013-01-18 02:38:00,
2013-01-17 21:43:00,39.4,33.1,29.79,NW,315,0.4,2.2,78,0.00,,,0.03,WUHU216HW,2013-01-18 02:43:00,
2013-01-17 21:48:00,39.4,33.1,29.79,SW,225,0.2,2.2,78,0.00,,,0.03,WUHU216HW,2013-01-18 02:48:00,
2013-01-17 21:53:00,39.4,33.1,29.80,West,270,0.2,1.1,78,0.00,,,0.03,WUHU216HW,2013-01-18 02:53:00,
2013-01-17 21:58:00,39.2,32.9,29.80,WNW,293,1.8,2.7,78,0.00,,,0.03,WUHU216HW,2013-01-18 02:58:00,
2013-01-17 22:03:00,39.2,32.9,29.81,South,180,1.1,2.7,78,0.00,,,0.03,WUHU216HW,2013-01-18 03:03:00,
2013-01-17 22:08:00,39.2,32.9,29.82,SW,225,1.1,1.6,78,0.00,,,0.03,WUHU216HW,2013-01-18 03:08:00,
2013-01-17 22:13:00,39.2,32.9,29.82,WSW,248,0.0,1.1,78,0.00,,,0.03,WUHU216HW,2013-01-18 03:13:00,
2013-01-17 22:18:00,39.1,32.8,29.83,SW,225,0.9,1.6,78,0.00,,,0.03,WUHU216HW,2013-01-18 03:18:00,
2013-01-17 22:23:00,39.1,32.8,29.82,West,270,0.2,1.6,78,0.00,,,0.03,WUHU216HW,2013-01-18 03:23:00,
2013-01-17 22:28:00,38.9,32.6,29.81,SW,225,0.0,0.9,78,0.00,,,0.03,WUHU216HW,2013-01-18 03:28:00,
2013-01-17 22:33:00,38.7,32.8,29.82,WNW,293,0.0,0.9,79,0.00,,,0.03,WUHU216HW,2013-01-18 03:33:00,
2013-01-17 22:38:00,38.7,32.8,29.82,WNW,293,0.7,1.1,79,0.00,,,0.03,WUHU216HW,2013-01-18 03:38:00,
2013-01-17 22:43:00,38.7,32.8,29.82,SW,225,0.2,1.1,79,0.00,,,0.03,WUHU216HW,2013-01-18 03:43:00,
2013-01-17 22:48:00,38.7,32.8,29.80,NW,315,1.6,1.6,79,0.00,,,0.03,WUHU216HW,2013-01-18 03:48:00,
2013-01-17 22:53:00,38.7,32.8,29.82,SW,225,0.9,1.6,79,0.00,,,0.03,WUHU216HW,2013-01-18 03:53:00,
2013-01-17 22:58:00,38.7,32.8,29.82,West,270,0.2,1.6,79,0.00,,,0.03,WUHU216HW,2013-01-18 03:58:00,
2013-01-17 23:03:00,38.5,32.6,29.80,NW,315,0.0,0.9,79,0.00,,,0.03,WUHU216HW,2013-01-18 04:03:00,
2013-01-17 23:08:00,38.5,32.6,29.77,NW,315,0.9,1.1,79,0.00,,,0.03,WUHU216HW,2013-01-18 04:08:00,
2013-01-17 23:13:00,38.5,32.6,29.77,WNW,293,0.7,2.2,79,0.00,,,0.03,WUHU216HW,2013-01-18 04:13:00,
2013-01-17 23:18:00,38.7,32.8,29.79,WNW,293,1.1,2.2,79,0.00,,,0.03,WUHU216HW,2013-01-18 04:18:00,
2013-01-17 23:23:00,38.7,32.8,29.81,WSW,248,0.2,2.2,79,0.00,,,0.03,WUHU216HW,2013-01-18 04:23:00,
2013-01-17 23:28:00,38.5,32.6,29.80,WNW,293,1.8,2.2,79,0.00,,,0.03,WUHU216HW,2013-01-18 04:28:00,
2013-01-17 23:33:00,38.7,32.8,29.78,WNW,293,1.8,2.2,79,0.00,,,0.03,WUHU216HW,2013-01-18 04:33:00,
2013-01-17 23:38:00,38.7,32.5,29.78,NNE,23,0.4,2.2,78,0.00,,,0.03,WUHU216HW,2013-01-18 04:38:00,
2013-01-17 23:43:00,38.7,32.5,29.81,WSW,248,0.7,1.8,78,0.00,,,0.03,WUHU216HW,2013-01-18 04:43:00,
2013-01-17 23:48:00,38.7,32.8,29.80,South,180,0.4,2.5,79,0.00,,,0.03,WUHU216HW,2013-01-18 04:48:00,
2013-01-17 23:53:00,38.5,32.6,29.81,SSW,203,0.4,2.5,79,0.00,,,0.03,WUHU216HW,2013-01-18 04:53:00,
2013-01-17 23:58:00,38.5,32.6,29.80,NW,315,1.1,2.9,79,0.00,,,0.03,WUHU216HW,2013-01-18 04:58:00,